{"data":{"norad_id":63309,"epoch":"2026-05-25T01:53:24.465696Z","epoch_age_seconds":58314,"freshness":"FRESH","line1":"1 63309U 25057C   26145.07875539  .00264769  00000+0  19952-2 0  9993","line2":"2 63309  43.0003 163.9030 0001920 260.4913  99.5737 15.70919564 69228","mean_motion":15.70919564,"eccentricity":0.000192,"inclination_deg":43.0003,"raan_deg":163.903,"arg_perigee_deg":260.4913,"mean_anomaly_deg":99.5737,"bstar":0.0019952,"rev_number":6922,"period_min":91.666055538411,"perigee_km":354.97465666896,"apogee_km":357.56066805931,"semimajor_km":6734.4046623641,"source":"CELESTRAK","updated_at":"2026-05-25T13:38:19.954549Z"}}